Hourly Weather Dalnia

Today, 17 April, Saturday

Time Temperature Precipitation Wind Pressure Humidity
00:00 +5°C° 0.1 mm 3 mps 751 mmHg 96%
01:00 +5°C° 0.1 mm 3 mps 750 mmHg 97%
02:00 +5°C° 0.1 mm 3 mps 750 mmHg 97%
03:00 +5°C° 0.1 mm 3 mps 751 mmHg 97%
04:00 +5°C° 0.1 mm 3 mps 751 mmHg 97%
05:00 +6°C° 0 mm 4 mps 751 mmHg 95%
06:00 +6°C° 0 mm 4 mps 751 mmHg 93%
07:00 +7°C° 0 mm 4 mps 751 mmHg 91%
08:00 +8°C° 0 mm 4 mps 751 mmHg 84%
09:00 +10°C° 0 mm 4 mps 751 mmHg 77%
10:00 +12°C° 0 mm 4 mps 752 mmHg 70%
11:00 +12°C° 0.3 mm 4 mps 752 mmHg 68%
12:00 +12°C° 0.3 mm 4 mps 752 mmHg 67%
13:00 +13°C° 0.3 mm 4 mps 752 mmHg 65%
14:00 +13°C° 0.2 mm 4 mps 752 mmHg 65%
15:00 +13°C° 0.2 mm 4 mps 752 mmHg 65%
16:00 +13°C° 0.2 mm 4 mps 752 mmHg 64%
17:00 +11°C° 0.1 mm 4 mps 752 mmHg 72%
18:00 +10°C° 0.1 mm 3 mps 752 mmHg 80%
19:00 +8°C° 0.1 mm 3 mps 752 mmHg 88%
20:00 +8°C° 0 mm 3 mps 752 mmHg 89%
21:00 +7°C° 0 mm 3 mps 752 mmHg 90%
22:00 +7°C° 0 mm 3 mps 753 mmHg 91%
23:00 +7°C° 0 mm 3 mps 753 mmHg 92%

Tomorrow, 18 April, Sunday

Time Temperature Precipitation Wind Pressure Humidity
00:00 +5°C° 0 mm 3 mps 753 mmHg 93%
01:00 +5°C° 0 mm 3 mps 753 mmHg 94%
02:00 +5°C° 0 mm 3 mps 753 mmHg 95%
03:00 +5°C° 0 mm 2 mps 752 mmHg 95%
04:00 +5°C° 0 mm 2 mps 752 mmHg 95%
05:00 +5°C° 0 mm 3 mps 752 mmHg 92%
06:00 +7°C° 0 mm 3 mps 753 mmHg 88%
07:00 +8°C° 0 mm 3 mps 753 mmHg 85%
08:00 +9°C° 0 mm 3 mps 753 mmHg 83%
09:00 +10°C° 0 mm 3 mps 753 mmHg 80%
10:00 +11°C° 0 mm 3 mps 753 mmHg 78%
11:00 +11°C° 0.1 mm 3 mps 753 mmHg 76%
12:00 +12°C° 0.1 mm 3 mps 753 mmHg 74%
13:00 +13°C° 0.1 mm 3 mps 752 mmHg 72%
14:00 +13°C° 0.5 mm 3 mps 752 mmHg 75%
15:00 +12°C° 0.5 mm 3 mps 752 mmHg 77%
16:00 +12°C° 0.5 mm 4 mps 752 mmHg 80%
17:00 +12°C° 0.1 mm 4 mps 752 mmHg 82%
18:00 +11°C° 0.1 mm 4 mps 752 mmHg 84%
19:00 +10°C° 0.1 mm 4 mps 753 mmHg 86%
20:00 +10°C° 0 mm 4 mps 753 mmHg 87%
21:00 +8°C° 0 mm 4 mps 753 mmHg 89%
22:00 +7°C° 0 mm 4 mps 753 mmHg 90%
23:00 +7°C° 0 mm 4 mps 753 mmHg 90%

Day after tomorrow, 19 April, Monday

Time Temperature Precipitation Wind Pressure Humidity
00:00 +8°C° 0 mm 3 mps 753 mmHg 91%
01:00 +8°C° 0 mm 3 mps 753 mmHg 91%
02:00 +8°C° 0 mm 3 mps 753 mmHg 91%
03:00 +7°C° 0 mm 3 mps 753 mmHg 92%
04:00 +5°C° 0 mm 3 mps 753 mmHg 92%
05:00 +6°C° 0 mm 4 mps 753 mmHg 89%
06:00 +7°C° 0 mm 4 mps 753 mmHg 86%
07:00 +7°C° 0 mm 5 mps 753 mmHg 83%
08:00 +8°C° 0 mm 5 mps 753 mmHg 77%
09:00 +9°C° 0 mm 6 mps 752 mmHg 72%
10:00 +10°C° 0 mm 6 mps 752 mmHg 66%
11:00 +10°C° 0.1 mm 6 mps 752 mmHg 65%
12:00 +12°C° 0.1 mm 5 mps 752 mmHg 64%
13:00 +12°C° 0.1 mm 5 mps 752 mmHg 63%
14:00 +10°C° 0 mm 5 mps 752 mmHg 67%
15:00 +10°C° 0 mm 5 mps 751 mmHg 70%
16:00 +9°C° 0 mm 5 mps 751 mmHg 73%
17:00 +8°C° 0 mm 5 mps 751 mmHg 75%
18:00 +8°C° 0 mm 5 mps 751 mmHg 77%
19:00 +7°C° 0 mm 4 mps 751 mmHg 79%
20:00 +6°C° 0 mm 4 mps 751 mmHg 82%
21:00 +7°C° 0 mm 3 mps 751 mmHg 84%
22:00 +5°C° 0 mm 3 mps 751 mmHg 87%
23:00 +5°C° 0 mm 3 mps 751 mmHg 84%

20 April, Tuesday

Time Temperature Precipitation Wind Pressure Humidity
00:00 +6°C° 0 mm 2 mps 750 mmHg 82%
01:00 +6°C° 0 mm 2 mps 750 mmHg 80%
02:00 +6°C° 0 mm 2 mps 750 mmHg 79%
03:00 +6°C° 0 mm 2 mps 750 mmHg 79%
04:00 +5°C° 0 mm 3 mps 749 mmHg 78%
05:00 +7°C° 0 mm 3 mps 749 mmHg 78%
06:00 +7°C° 0 mm 3 mps 749 mmHg 78%
07:00 +7°C° 0 mm 3 mps 749 mmHg 78%
08:00 +8°C° 0.2 mm 3 mps 748 mmHg 73%
09:00 +9°C° 0.2 mm 3 mps 748 mmHg 68%
10:00 +11°C° 0.2 mm 3 mps 748 mmHg 62%
11:00 +11°C° 0.3 mm 3 mps 747 mmHg 62%
12:00 +11°C° 0.3 mm 3 mps 747 mmHg 61%
13:00 +11°C° 0.3 mm 3 mps 747 mmHg 60%
14:00 +11°C° 0.2 mm 3 mps 746 mmHg 60%
15:00 +11°C° 0.2 mm 3 mps 746 mmHg 61%
16:00 +11°C° 0.2 mm 3 mps 746 mmHg 61%
17:00 +10°C° 0.1 mm 3 mps 746 mmHg 68%
18:00 +9°C° 0.1 mm 3 mps 746 mmHg 75%
19:00 +7°C° 0.1 mm 3 mps 745 mmHg 83%
20:00 +5°C° 0 mm 3 mps 745 mmHg 86%
21:00 +5°C° 0 mm 3 mps 745 mmHg 89%
22:00 +4°C° 0 mm 3 mps 745 mmHg 92%
23:00 +3°C° 0 mm 3 mps 744 mmHg 92%

21 April, Wednesday

Time Temperature Precipitation Wind Pressure Humidity
00:00 +3°C° 0 mm 3 mps 744 mmHg 92%
01:00 +2°C° 0 mm 3 mps 744 mmHg 92%
02:00 +2°C° 0 mm 3 mps 744 mmHg 92%
03:00 +2°C° 0 mm 3 mps 744 mmHg 92%
04:00 0°C° 0 mm 4 mps 743 mmHg 92%
05:00 +1°C° 0 mm 4 mps 743 mmHg 87%
06:00 +2°C° 0 mm 5 mps 743 mmHg 82%
07:00 +3°C° 0 mm 5 mps 744 mmHg 77%
08:00 +6°C° 0 mm 5 mps 744 mmHg 72%
09:00 +7°C° 0 mm 5 mps 744 mmHg 67%
10:00 +9°C° 0 mm 5 mps 744 mmHg 62%
11:00 +9°C° 0 mm 5 mps 744 mmHg 59%
12:00 +10°C° 0 mm 5 mps 744 mmHg 56%
13:00 +10°C° 0 mm 5 mps 744 mmHg 53%
14:00 +11°C° 0 mm 4 mps 744 mmHg 54%
15:00 +11°C° 0 mm 4 mps 744 mmHg 56%
16:00 +11°C° 0 mm 4 mps 744 mmHg 57%
17:00 +10°C° 0 mm 3 mps 745 mmHg 62%
18:00 +8°C° 0 mm 2 mps 745 mmHg 68%
19:00 +8°C° 0 mm 1 mps 745 mmHg 73%
20:00 +8°C° 0 mm 1 mps 745 mmHg 75%
21:00 +7°C° 0 mm 1 mps 746 mmHg 77%
22:00 +6°C° 0 mm 1 mps 746 mmHg 80%
23:00 +6°C° 0 mm 1 mps 746 mmHg 79%

22 April, Thursday

Time Temperature Precipitation Wind Pressure Humidity
00:00 +6°C° 0 mm 1 mps 746 mmHg 79%
01:00 +5°C° 0 mm 2 mps 746 mmHg 79%
02:00 +5°C° 0 mm 2 mps 746 mmHg 80%
03:00 +5°C° 0 mm 2 mps 746 mmHg 80%
04:00 +4°C° 0 mm 2 mps 746 mmHg 80%
05:00 +5°C° 0 mm 3 mps 747 mmHg 77%
06:00 +8°C° 0 mm 3 mps 747 mmHg 74%
07:00 +9°C° 0 mm 3 mps 747 mmHg 71%
08:00 +11°C° 0 mm 4 mps 747 mmHg 66%
09:00 +12°C° 0 mm 4 mps 747 mmHg 62%
10:00 +14°C° 0 mm 5 mps 747 mmHg 57%
11:00 +15°C° 0 mm 5 mps 747 mmHg 55%
12:00 +16°C° 0 mm 5 mps 747 mmHg 53%
13:00 +17°C° 0 mm 5 mps 747 mmHg 51%
14:00 +17°C° 0 mm 4 mps 747 mmHg 53%
15:00 +17°C° 0 mm 4 mps 747 mmHg 54%
16:00 +17°C° 0 mm 3 mps 747 mmHg 56%
17:00 +16°C° 0.1 mm 3 mps 747 mmHg 61%
18:00 +13°C° 0.1 mm 3 mps 747 mmHg 67%
19:00 +11°C° 0.1 mm 3 mps 748 mmHg 72%
20:00 +11°C° 0.3 mm 3 mps 748 mmHg 76%
21:00 +10°C° 0.3 mm 3 mps 748 mmHg 81%
22:00 +9°C° 0.3 mm 3 mps 748 mmHg 85%
23:00 +9°C° 0.1 mm 3 mps 748 mmHg 87%
Show more